Regional Weather Roundup
Issued by NWS

Home | Current Version | Previous Version | Text Only | Print | Product List | Glossary Off
Versions: 1 2 3 4 5 6 7 8 9 10 11 12 13 14 15 16 17 18 19 20 21 22 23 24 25 26 27 28 29 30 31 32 33 34 35 36 37 38 39 40 41 42 43 44 45 46 47 48 49 50

091
ASUS45 KTFX 210710
RWRMT
MONTANA REGIONAL WEATHER ROUNDUP
NATIONAL WEATHER SERVICE GREAT FALLS MT
1200 AM MST TUE NOV 21 2017

NOTE: "FAIR" INDICATES FEW OR NO CLOUDS BELOW 12000 FEET WITH NO
SIGNIFICANT WEATHER AND/OR OBSTRUCTIONS TO VISIBILITY.

MTZ001>007-043-210800-
WEST OF THE DIVIDE

CITY           SKY/WX    TMP DP  RH WIND       PRES   REMARKS
KALISPELL      CLOUDY    37  37 100 CALM      30.03R
MISSOULA       FOG       34  34 100 CALM      30.08R VSB 1/4
BUTTE          FAIR      32  29  88 CALM      30.02R
MULLAN PASS    CLOUDY    29  25  85 SW9G17    30.03R WCI  20
ANACONDA         N/A     36  27  69 N6        30.03R WCI  31
DEER LODGE       N/A     34  30  86 NW7       30.06R WCI  28
EUREKA           N/A     37  36  93 MISG      30.03R
HAMILTON         N/A     39  30  70 CALM      30.08R
LIBBY            N/A     34  34 100 CALM      30.06R
RONAN            N/A     39  35  85 SE1       30.09R
$$

MTZ008-052>055-210800-
SOUTHWEST MONTANA

CITY           SKY/WX    TMP DP  RH WIND       PRES   REMARKS
BOZEMAN        FAIR      36  33  89 N7        30.04R WCI  30
DILLON         CLOUDY    34  31  88 SE9       30.02R WCI  27
W YELLOWSTONE  LGT SNOW  32  30  93 SW10      30.04R WCI  24
ENNIS          CLOUDY    39  32  75 CALM      30.07R
$$

MTZ009-010-012-014-046-048-049-054-210800-
EAST SLOPES AND CENTRAL MONTANA

CITY           SKY/WX    TMP DP  RH WIND       PRES   REMARKS
CUT BANK       CLOUDY    15   9  76 N12       30.14R WCI   2
GREAT FALLS    LGT SNOW  23  19  85 NE13      30.14R FOG     WCI  11
MALMSTROM AFB  LGT SNOW  22  22  97 N9        30.15R WCI  12
HELENA         CLOUDY    33  32  96 CALM      30.05R
BOWMANS CRNR   FRZ RAIN  23  22  99 NE10      30.08R WCI  12
CHOTEAU          N/A     21  19  93 N8        30.14R WCI  12
FAIRFIELD      FLURRIES  24  22  89 NE7       30.12R WCI  16
POWER          FLURRIES  22  19  87 NE7       30.13R WCI  13
RAYNESFORD     SNOWSHWR  24  22  95 W10       30.10R WCI  13
ULM            LGT SNOW  24  22  89 NE8       30.14R WCI  16
$$

MTZ011-013-016-021-045-047-050-051-210800-
NORTH CENTRAL MONTANA

CITY           SKY/WX    TMP DP  RH WIND       PRES   REMARKS
HAVRE          CLOUDY    18   7  62 NE10      30.21R WCI   6
LEWISTOWN      LGT SNOW  23  23 100 N6        30.08R FOG     WCI  16
N BAR RANCH    LGT SNOW  23  19  86 CALM      30.08R
CHINOOK          N/A     18   3  53 N10       30.22R WCI   6
DENTON         FLURRIES  25  24  94 MISG      30.08R
GEYSER         FLURRIES  22  18  85 N14       30.09R WCI  10
GRASS RANGE    FLURRIES  24  22  91 CALM      30.06R
STANFORD       FLURRIES  23  22  96 N3        30.08R
WINIFRED       FLURRIES  24  24  96 NE7       30.10R WCI  16
$$

MTZ017>020-022>027-061-062-210800-
NORTHEAST MONTANA

CITY           SKY/WX    TMP DP  RH WIND       PRES   REMARKS
GLASGOW        MOCLDY     8  -2  63 NW13      30.18R WCI  -8
GLENDIVE       CLOUDY    16   3  56 N21       30.08R WCI  -1
JORDAN           N/A     22  12  65 N20       30.11R WCI   7
SIDNEY         FAIR       8  -1  66 NW16      30.13R WCI -10
WOLF POINT     FAIR       8  -3  61 NW7       30.17R WCI  -3
MALTA          CLOUDY    14   3  62 N13       30.21R WCI   0
PLENTYWOOD       N/A      1  -2  85 NW16G22   30.08R WCI -18
POPLAR           N/A      7  -2  66 NW7G22    30.16R WCI  -5
$$

MTZ028>42-056>058-210800-
SOUTHCENTRAL AND SOUTHEAST MONTANA

CITY           SKY/WX    TMP DP  RH WIND       PRES   REMARKS
BAKER          CLOUDY    26  18  71 NW16      30.00R WCI  14
BILLINGS       LGT SNOW  28  28 100 NE12      30.07R FOG     WCI  18
LIVINGSTON     CLOUDY    40  37  89 W9        30.02R
MILES CITY     FLURRIES  29  22  75 N15       30.06R WCI  18
BIG TIMBER     CLOUDY    30  30 100 N9        30.08R WCI  22
EKALAKA          N/A     24  19  81 NW12      29.96R WCI  13
FORSYTH          N/A     28  28 100 W5        30.08R
HARLOWTON      LGT SNOW  26  24  91 E10       30.07R WCI  16
LAUREL           N/A     30  28  93 E13       30.09R WCI  20
$$

REGIONAL REPORTS...DAKOTAS

CITY           SKY/WX    TMP DP  RH WIND       PRES   REMARKS
WILLISTON      MOCLDY     7  -1  70 N15       30.10R WCI -10
MINOT          FAIR      11   3  70 W28G38    29.94R WCI -10
DICKINSON      FAIR      14   1  56 NW23      29.96R WCI  -5
BEACH          CLOUDY    14  -2  48 NW28      30.06R WCI  -6
CROSBY         FAIR       5   0  78 NW17G25   30.07R WCI -14
TIOGA          FLURRIES   5   0  78 NW24G33   30.02R WCI -17
WATFORD CITY   CLOUDY     7   0  72 W14       30.07R WCI -10
BISMARCK       FAIR      20   6  55 NW21G36   29.96R WCI   4
GRAND FORKS    CLOUDY    21  12  68 NW26G41   29.72R WCI   4
FARGO          LGT SNOW  25  17  72 NW28G38   29.71R WCI   9
BUFFALO SD       N/A     29  21  72 NW29G37   29.89R WCI  14
RAPID CITY     LGT SNOW  31  28  89 N26       29.91R FOG     WCI  17
$$

REGIONAL REPORTS...WYOMING/IDAHO/WASHINGTON

CITY           SKY/WX    TMP DP  RH WIND       PRES   REMARKS
GILLETTE       CLOUDY    31  29  92 N15       29.95R WCI  20
SHERIDAN       LGT SNOW  31  30  96 N10       30.03R FOG     WCI  22
BUFFALO WY     CLOUDY    37  32  82 NE14G20   29.96R WCI  28
CODY           FAIR      38  30  73 NW3       29.98R
YELLOWSTONE LA   N/A     30  29  96 CALM      30.06R
IDAHO FALLS    CLOUDY    43  38  82 SW17      30.08R
SALMON         CLOUDY    32  31  96 S8        30.10R FOG     WCI  25
BOISE          CLOUDY    47  42  83 SE12      30.11R
SPOKANE        FOG       38  38 100 S5        30.06S VSB 1
$$

REGIONAL REPORTS...ALBERTA

CITY           SKY/WX    TMP DP  RH WIND       PRES   REMARKS
EDMONTON       CLOUDY     0  -8  71 W3        30.26R
CALGARY        CLOUDY    12   3  67 E7        30.13R WCI   2
LETHBRIDGE     CLOUDY    16   9  73 SE6       30.20R WCI   7
MEDICINE HAT   CLOUDY     9   1  72 N9        30.27R WCI  -5
$$

REGIONAL REPORTS...SASKATCHEWAN

CITY           SKY/WX    TMP DP  RH WIND       PRES   REMARKS
SWIFT CURRENT  CLEAR     -4  -9  77 NW10      30.15R WCI -21
REGINA         CLOUDY     0  -6  78 W18       30.10R WCI -22
SASKATOON      FLURRIES   1  -4  78 W10       30.19R WCI -14
$$




USA.gov is the U.S. government's official web portal to all federal, state and local government web resources and services.